OSCAR 7 (AO-7) 1 07530U 74089B 26095.03893733 -.00000052 00000+0 -34430-4 0 9997 2 07530 101.9951 107.5125 0011868 270.6288 109.0426 12.53696937351351 PHASE 3B (AO-10) 1 14129U 83058B 26094.55753074 .00000190 00000+0 00000+0 0 9996 2 14129 25.9042 231.8754 6037310 95.3177 331.8918 2.05870704293979 UOSAT 2 (UO-11) 1 14781U 84021B 26095.19022028 .00002659 00000+0 27716-3 0 9999 2 14781 97.7996 61.6194 0009139 69.7980 290.4221 14.90606767246253 LUSAT (LO-19) 1 20442U 90005G 26095.27317091 .00000208 00000+0 91070-4 0 9998 2 20442 98.8912 115.0510 0012553 62.8510 297.3952 14.34099913891943 EYESAT A (AO-27) 1 22825U 93061C 26095.13867373 .00000158 00000+0 77285-4 0 9994 2 22825 98.6929 162.5617 0007547 320.7538 39.3096 14.30922415696555 ITAMSAT (IO-26) 1 22826U 93061D 26095.13979767 .00000172 00000+0 81941-4 0 9996 2 22826 98.6878 162.4731 0007839 302.0253 58.0167 14.31347348696864 RADIO ROSTO (RS15) 1 23439U 94085A 26095.21355807 -.00000050 00000+0 -20727-3 0 9997 2 23439 64.8169 61.2314 0153679 17.1170 343.4858 11.27583833287678 JAS-2 (FO-29) 1 24278U 96046B 26095.11453191 .00000010 00000+0 49260-4 0 9990 2 24278 98.5334 313.9546 0348881 286.1171 70.1831 13.53270581463284 TECHSAT 1B (GO-32) 1 25397U 98043D 26095.22203457 .00000113 00000+0 68983-4 0 9999 2 25397 99.0053 86.1499 0002304 76.7559 283.3876 14.24413734440940 ISS (ZARYA) 1 25544U 98067A 26095.03712624 .00009326 00000+0 17854-3 0 9994 2 25544 51.6327 302.0967 0006294 273.6206 86.4063 15.48778120560416 PCSAT (NO-44) 1 26931U 01043C 26095.23998755 .00000264 00000+0 12927-3 0 9994 2 26931 67.0498 72.9417 0006817 264.5411 95.4914 14.31926836280007 SAUDISAT 1C (SO-50) 1 27607U 02058C 26095.12210001 .00001899 00000+0 24059-3 0 9995 2 27607 64.5552 355.0194 0075478 275.8009 83.4496 14.82889051253628 CUTE-1 (CO-55) 1 27844U 03031E 26094.97812161 .00000458 00000+0 21713-3 0 9991 2 27844 98.6769 104.4513 0010325 43.9369 316.2630 14.24289350181251 CUBESAT XI-IV (CO-57) 1 27848U 03031J 26095.00030604 .00000375 00000+0 18383-3 0 9991 2 27848 98.6802 104.2449 0010479 60.3929 299.8292 14.23580899180962 MOZHAETS 4 (RS22) 1 27939U 03042A 26095.29683566 .00002116 00000+0 33479-3 0 9994 2 27939 98.3454 277.6023 0012122 135.5495 36.6553 14.73335037204811 CUBESAT XI-V 1 28895U 05043F 26095.21955321 .00002651 00000+0 42563-3 0 9990 2 28895 98.2886 249.3545 0015300 79.0212 281.2715 14.72437411 91018 CUTE-1.7+APD II (CO-65) 1 32785U 08021C 26095.24552648 .00007163 00000+0 45989-3 0 9998 2 32785 97.8239 75.2076 0007177 278.9265 81.1150 15.08760642974198 SEEDS II (CO-66) 1 32791U 08021J 26095.21828436 .00023732 00000+0 81081-3 0 9996 2 32791 97.7527 89.7798 0003015 158.9144 201.2220 15.30294749976128 YUBILEINY (RS30) 1 32953U 08025A 26095.26574293 .00000047 00000+0 26262-3 0 9998 2 32953 82.5058 40.7894 0020413 108.5712 251.7587 12.43177068810630 KKS-1 (KISEKI) 1 33499U 09002H 26095.18592010 .00002520 00000+0 31728-3 0 9999 2 33499 98.1188 16.4862 0008239 157.1678 202.9903 14.82934969925375 SWISSCUBE 1 35932U 09051B 26095.23210999 .00001815 00000+0 36901-3 0 9990 2 35932 98.4078 1.8437 0008089 80.6523 279.5592 14.62337809878490 BEESAT-1 1 35933U 09051C 26094.99876049 .00001439 00000+0 29930-3 0 9993 2 35933 98.4009 1.3930 0006547 92.8438 267.3512 14.61597876878493 ITUPSAT1 1 35935U 09051E 26095.19989211 .00001367 00000+0 29280-3 0 9992 2 35935 98.4093 0.8653 0008673 102.3407 257.8764 14.60328249878082 XIWANG-1 (HOPE-1) 1 36122U 09072B 26095.28472072 .00000177 00000+0 58061-3 0 9993 2 36122 100.3966 50.3047 0008035 43.5004 316.6742 13.16438385783416 O/OREOS (USA 219) 1 37224U 10062C 26094.85674956 .00004177 00000+0 40199-3 0 9992 2 37224 71.9707 246.4007 0015767 212.3881 147.6323 14.93442073105699 JUGNU 1 37839U 11058B 26095.16955251 .00000570 00000+0 15802-3 0 9991 2 37839 19.9620 32.0253 0018437 350.5168 40.3194 14.13753627748688 SRMSAT 1 37841U 11058D 26094.43294969 .00000492 00000+0 12313-3 0 9992 2 37841 19.9707 145.8850 0011920 111.8741 15.3851 14.11557506747382 STRAND-1 1 39090U 13009E 26095.23056663 .00000503 00000+0 18366-3 0 9991 2 39090 98.3906 277.2648 0009856 89.8163 270.4154 14.37119172686589 ZACUBE-1 (TSHEPISOSAT) 1 39417U 13066B 26095.13875085 .00006185 00000+0 48411-3 0 9999 2 39417 97.8146 57.0918 0044992 134.2019 226.2915 15.00595153669775 GOMX-1 1 39430U 13066Q 26095.25034567 .00002030 00000+0 31199-3 0 9999 2 39430 97.6535 300.2983 0128048 312.2182 46.8213 14.69206231659203 CUBEBUG-2 (LO-74) 1 39440U 13066AA 26095.30272076 .00005449 00000+0 51027-3 0 9994 2 39440 97.8853 44.0303 0056639 269.2046 90.2684 14.93272372666113 FUNCUBE-1 (AO-73) 1 39444U 13066AE 26095.18031921 .00011812 00000+0 74891-3 0 9991 2 39444 97.8239 65.1851 0039093 92.0712 268.4993 15.08440482668653 UWE-3 1 39446U 13066AG 26095.14421561 .00005905 00000+0 51308-3 0 9996 2 39446 97.8633 50.7911 0048973 201.3754 158.5422 14.96461292666650 UNISAT-6 1 40012U 14033C 26095.24019388 .00004828 00000+0 52492-3 0 9991 2 40012 97.7782 249.2953 0044147 309.9374 49.7967 14.87831103635314 DUCHIFAT-1 1 40021U 14033M 26095.27149655 .00081314 00000+0 12684-2 0 9998 2 40021 98.0571 144.8991 0003099 342.7957 17.3189 15.53558422644398 QB50P1 1 40025U 14033R 26094.96602727 .00012738 00000+0 64496-3 0 9994 2 40025 98.1002 101.0367 0010584 113.0107 247.2242 15.17106884641928 LILACSAT-2 1 40908U 15049K 26095.26750574 .00022032 00000+0 40645-3 0 9998 2 40908 97.4751 129.4274 0008479 145.8025 214.3774 15.49096413584454 FOX-1A (AO-85) 1 40967U 15058D 26095.29740448 .00003212 00000+0 29544-3 0 9999 2 40967 64.7743 145.4238 0128308 85.2285 276.3465 14.90545783102707 CAS-2T & KS-1Q 1 41847U 16066G 26095.16667105 .00001305 00000+0 19233-3 0 9996 2 41847 98.3848 171.7229 0342093 351.3202 8.2165 14.44540754494256 RADFXSAT (FOX-1B) 1 43017U 17073E 26095.21432960 .00010483 00000+0 46996-3 0 9994 2 43017 97.4806 323.9554 0152904 219.8739 139.1180 15.11449824454366 DIWATA-2B 1 43678U 18084H 26095.27143194 .00002747 00000+0 22509-3 0 9992 2 43678 98.1036 288.4008 0013884 49.4829 310.7600 15.00107256405280 ES'HAIL 2 1 43700U 18090A 26095.21711404 .00000145 00000+0 00000+0 0 9992 2 43700 0.0180 211.3874 0001275 182.2664 263.8520 1.00269802 26940 FOX-1CLIFF (AO-95) 1 43770U 18099N 26095.15612195 .00015748 00000+0 62959-3 0 9998 2 43770 97.4453 155.7354 0007747 238.2885 121.7598 15.25168063402080 ITASAT 1 43786U 18099AE 26095.14371021 .00009440 00000+0 46480-3 0 9997 2 43786 97.4109 148.1347 0011391 243.3251 116.6817 15.18135630401821 JY1SAT (JO-97) 1 43803U 18099AX 26095.16009435 .00022732 00000+0 75054-3 0 9994 2 43803 97.4195 157.8469 0006753 159.0119 201.1401 15.31389189402443 UWE-4 1 43880U 18111E 26095.23545195 .00038350 00000+0 90054-3 0 9990 2 43880 97.5857 20.5234 0006878 210.6830 149.4016 15.41908824399526 TIANYAN 01 1 44881U 19093C 26095.27678744 .00001604 00000+0 18754-3 0 9992 2 44881 97.7568 169.2798 0012859 332.5768 27.4767 14.86403020340581 RS-44 & BREEZE-KM R/B 1 44909U 19096E 26095.21886984 .00000015 00000+0 23821-4 0 9994 2 44909 82.5256 28.1874 0216768 315.2466 43.1321 12.79747781293015 SALSAT 1 46495U 20068K 26095.25293326 .00010667 00000+0 38421-3 0 9998 2 46495 97.8868 93.9405 0009584 187.7921 172.3170 15.28731219304217 XW-3 (CAS-9) 1 50466U 21131B 26095.30147233 .00000903 00000+0 29291-3 0 9991 2 50466 98.4952 188.1021 0003290 332.4022 27.6991 14.41287823224610 GREENCUBE (IO-117) 1 53109U 22080E 26094.56827725 -.00000003 00000+0 00000+0 0 9995 2 53109 70.1528 323.8593 0009014 305.8170 54.1652 6.42583190 87336 UMKA 1 (RS40S) 1 57172U 23091G 26095.23749839 .00009222 00000+0 42998-3 0 9993 2 57172 97.5118 154.2340 0013254 21.3976 338.7811 15.20017919152922 CUBESX-HSE 3 (RS42S) 1 57178U 23091N 26095.26493706 .00017906 00000+0 62777-3 0 9996 2 57178 97.5150 160.0112 0010578 358.6298 1.4911 15.29460976153273 MONITOR-3 (RS58S) 1 57180U 23091Q 26095.13736353 .00015295 00000+0 58816-3 0 9991 2 57180 97.5145 158.1050 0011719 4.9292 355.2060 15.26438828153141 MONITOR-4 (RS57S) 1 57182U 23091S 26095.25205995 .00015050 00000+0 57715-3 0 9995 2 57182 97.5139 158.1870 0011626 5.0374 355.0979 15.26534630153163 MONITOR-2 (RS39S) 1 57184U 23091U 26095.23683278 .00007751 00000+0 38103-3 0 9998 2 57184 97.5141 154.0007 0011479 14.9567 345.2004 15.18256790152881 SVYATOBOR 1 (RS60S) 1 57187U 23091X 26095.27283482 .00012122 00000+0 48178-3 0 9999 2 57187 97.5150 158.7320 0009169 358.5505 1.5704 15.25419257153196 VIZARD-METEO (RS38S) 1 57189U 23091Z 26095.12959421 .00023393 00000+0 71612-3 0 9999 2 57189 97.5142 163.2622 0006499 340.6991 19.4004 15.33808223153486 NANOZOND 1 (RS49S) 1 57190U 23091AA 26095.18694954 .00648711 17327-3 18773-2 0 9993 2 57190 97.4955 177.8523 0007213 261.1338 98.9120 15.92951586154463 POLYTECH-UNIVERSE 3 (R*) 1 57191U 23091AB 26095.27353588 .00007007 00000+0 34230-3 0 9999 2 57191 97.5117 153.5432 0016286 28.9709 331.2426 15.18450456152880 UTMN 2 (RS27S) 1 57203U 23091AP 26095.25804801 .00018319 00000+0 62574-3 0 9990 2 57203 97.5143 161.5481 0007467 347.3830 12.7223 15.30332422153388 KUZGTU 1 (RS47S) 1 57217U 23091AV 26095.13000237 .00017553 00000+0 63834-3 0 9992 2 57217 97.5125 158.9364 0010871 2.6391 357.4903 15.28262031153210 SONATE-2 1 59112U 24043Q 26095.15147432 .00048232 00000+0 75266-3 0 9997 2 59112 97.5444 241.4039 0007677 112.3720 247.8347 15.53658637116539 MESAT1 1 60209U 24125G 26095.15099479 .00057630 00000+0 81319-3 0 9992 2 60209 97.2402 311.3199 0012631 125.8363 234.4068 15.56315535 98183 OOV-CUBE (TUBSAT-30) 1 60240U 24128F 26095.31938792 .00003030 00000+0 23670-3 0 9999 2 60240 61.9933 119.5903 0052290 117.8444 242.7959 15.02424921 95169 COLIBRI-S (RS67S) 1 61746U 24199M 26095.25493850 .00027728 00000+0 59181-3 0 9999 2 61746 97.3103 328.5642 0009283 174.1325 186.0034 15.44800317126143 HORS 3 (RS81S) 1 61753U 24199U 26095.25669182 .00041272 00000+0 72567-3 0 9993 2 61753 97.3076 329.8704 0007337 173.6909 186.4437 15.50349237126241 HORS 4 (RS82S) 1 61754U 24199V 26095.27271058 .00051175 00000+0 79855-3 0 9997 2 61754 97.3043 330.6962 0007006 169.1947 190.9458 15.53651040126308 HORIZON (RS59S) 1 61757U 24199Y 26095.24875698 .00257939 00000+0 13515-2 0 9993 2 61757 97.2976 335.4000 0006552 146.2188 213.9499 15.80072576126604 ARCTICSAT 1 (RS74S) 1 61762U 24199AD 26095.29483121 .00163821 00000+0 12073-2 0 9994 2 61762 97.3013 334.7430 0006755 144.6247 215.5466 15.72516178126564 SIT-2086 1 61764U 24199AF 26095.28402084 .00028402 00000+0 52266-3 0 9998 2 61764 97.3064 330.5887 0007147 162.5159 197.6340 15.49126825123130 HYPERVIEW 1G (RS66S) 1 61772U 24199AP 26095.25001809 .00096507 00000+0 10871-2 0 9990 2 61772 97.3018 332.0816 0008286 168.3225 191.8227 15.62196194123243 ALTAIR (RS65S) 1 61779U 24199AW 26095.29354499 .00014660 00000+0 42379-3 0 9996 2 61779 97.3130 325.1563 0012503 200.7231 159.3508 15.35656152125925 ASRTU-1 (AO-123) 1 61781U 24199AY 26095.28998897 .00010806 00000+0 32351-3 0 9991 2 61781 97.3103 324.6312 0013380 203.6809 156.3820 15.34616342122748 TUSUR GO (RS78S) 1 61782U 24199AZ 26095.17850494 .00328662 00000+0 15508-2 0 9996 2 61782 97.2924 334.3660 0006869 157.0179 203.1399 15.82183505123396 SAMSAT-IONOSPHERE (RS7*) 1 61784U 24199BB 26095.25795232 .00049220 00000+0 81743-3 0 9990 2 61784 97.3059 329.7153 0010025 178.4496 181.6789 15.51893770126238 RTU MIREA 1 (RS51S) 1 61785U 24199BC 26095.28459472 .00056832 00000+0 86857-3 0 9995 2 61785 97.3055 330.2712 0010070 176.1056 184.0278 15.54170756123120 TEVEL2-4 1 63213U 25052D 26094.96024818 .00022675 00000+0 73221-3 0 9997 2 63213 97.3985 351.3418 0003566 46.7949 313.3590 15.32120609 58895 TEVEL2-5 1 63214U 25052E 26095.16935114 .00023697 00000+0 76795-3 0 9995 2 63214 97.3978 351.5171 0003550 46.4233 313.7303 15.31996691 58923 TEVEL2-6 1 63215U 25052F 26095.17987653 .00024715 00000+0 80172-3 0 9998 2 63215 97.3982 351.5133 0003596 45.6011 314.5525 15.31956649 58926 TEVEL2-1 1 63217U 25052H 26095.18563353 .00024135 00000+0 79409-3 0 9995 2 63217 97.3954 351.2240 0004065 54.5644 305.5977 15.31503353 58916 TEVEL2-3 1 63218U 25052J 26094.65986222 .00026749 00000+0 87910-3 0 9990 2 63218 97.3959 350.7137 0004158 54.5708 305.5921 15.31518198 58838 TEVEL2-2 1 63219U 25052K 26095.18623899 .00024243 00000+0 79749-3 0 9996 2 63219 97.3956 351.2258 0004065 54.8675 305.2947 15.31508029 58915 TEVEL2-9 1 63237U 25052AD 26094.94328454 .00021003 00000+0 73068-3 0 9997 2 63237 97.4021 350.5057 0007819 54.2343 305.9623 15.29701759 58824 TEVEL2-7 1 63238U 25052AE 26095.23318366 .00021619 00000+0 75714-3 0 9995 2 63238 97.4020 350.7381 0007952 53.7009 306.4964 15.29477037 58864 TEVEL2-8 1 63239U 25052AF 26095.24057536 .00021953 00000+0 76924-3 0 9991 2 63239 97.4020 350.7250 0007948 54.4340 305.7640 15.29456427 58864 HADES-ICM 1 63492U 25052BN 26095.16836670 .00274628 00000+0 25045-2 0 9993 2 63492 97.3880 356.7473 0006118 76.3003 283.8939 15.67014218 59271 INNOSAT 16 (RS92S7) 1 64878U 25155C 26095.17045142 .00009674 00000+0 39398-3 0 9997 2 64878 97.4513 62.6064 0012673 84.6086 275.6597 15.24621555 69540 GEOSCAN 6 (RS92S6) 1 64879U 25155D 26095.16632520 .00015255 00000+0 54775-3 0 9997 2 64879 97.4509 63.5437 0010154 79.9968 280.2417 15.28717588 69604 GEOSCAN 1 (RS92S1) 1 64880U 25155E 26095.25978889 .00016907 00000+0 59785-3 0 9991 2 64880 97.4506 63.7282 0010097 79.9865 280.2514 15.29197231 69623 239ALFEROV (RS61S) 1 64881U 25155F 26095.12656782 .00019790 00000+0 66284-3 0 9998 2 64881 97.4510 63.9354 0009778 80.5827 279.6519 15.30930952 69625 GEOSCAN 2 (RS92S2) 1 64890U 25155Q 26095.26693156 .00016739 00000+0 58669-3 0 9997 2 64890 97.4504 63.8577 0009243 69.8982 290.3252 15.29495661 69639 GEOSCAN 5 (RS92S5) 1 64891U 25155R 26095.26169085 .00021397 00000+0 70900-3 0 9995 2 64891 97.4503 64.1801 0008687 85.6323 274.5911 15.31271324 69658 GEOSCAN 4 (RS92S4) 1 64892U 25155S 26095.25219638 .00021147 00000+0 69829-3 0 9996 2 64892 97.4507 64.2008 0008743 86.1596 274.0645 15.31385640 69650 GEOSCAN 3 (RS92S3) 1 64893U 25155T 26095.27085124 .00026006 00000+0 81779-3 0 9997 2 64893 97.4496 64.4648 0008515 87.7278 272.4939 15.32914157 69673 INNOSAT 3 (RS92S0) 1 64894U 25155U 26095.27441696 .00049705 00000+0 12847-2 0 9998 2 64894 97.4461 65.3293 0008380 89.0946 271.1259 15.38918781 69730 KNACKSAT-2 1 67683U 98067XZ 26094.79014270 .00049990 00000+0 75544-3 0 9999 2 67683 51.6331 301.9471 0010720 281.6024 78.3763 15.54148205 8848